Year,Month,Day,Hour,Minute,Value (Times are PST for temperature in C)
2012,09,26,00,00,9.30
2012,09,26,00,01,9.30
2012,09,26,00,02,9.30
2012,09,26,00,03,9.30
2012,09,26,00,04,9.30
2012,09,26,00,05,9.30
2012,09,26,00,06,9.30
2012,09,26,00,07,9.30
2012,09,26,00,08,9.30
2012,09,26,00,09,9.30
2012,09,26,00,10,9.40
2012,09,26,00,11,9.40
2012,09,26,00,12,9.30
2012,09,26,00,13,9.30
2012,09,26,00,14,9.30
2012,09,26,00,15,9.30
2012,09,26,00,16,9.30
2012,09,26,00,17,9.30
2012,09,26,00,18,9.30
2012,09,26,00,19,9.30
2012,09,26,00,20,9.30
2012,09,26,00,21,9.30
2012,09,26,00,22,9.30
2012,09,26,00,23,9.40
2012,09,26,00,24,9.40
2012,09,26,00,25,9.50
2012,09,26,00,26,9.60
2012,09,26,00,27,9.60
2012,09,26,00,28,9.60
2012,09,26,00,29,9.60
2012,09,26,00,30,9.50
2012,09,26,00,31,9.50
2012,09,26,00,32,9.60
2012,09,26,00,33,9.60
2012,09,26,00,34,9.60
2012,09,26,00,35,9.60
2012,09,26,00,36,9.50
2012,09,26,00,37,9.50
2012,09,26,00,38,9.50
2012,09,26,00,39,9.50
2012,09,26,00,40,9.50
2012,09,26,00,41,9.50
2012,09,26,00,42,9.50
2012,09,26,00,43,9.50
2012,09,26,00,44,9.40
2012,09,26,00,45,9.40
2012,09,26,00,46,9.40
2012,09,26,00,47,9.40
2012,09,26,00,48,9.30
2012,09,26,00,49,9.30
2012,09,26,00,50,9.30
2012,09,26,00,51,9.30
2012,09,26,00,52,9.30
2012,09,26,00,53,9.30
2012,09,26,00,54,9.30
2012,09,26,00,55,9.20
2012,09,26,00,56,9.20
2012,09,26,00,57,9.20
2012,09,26,00,58,9.20
2012,09,26,00,59,9.20
2012,09,26,01,00,9.20
2012,09,26,01,01,9.20
2012,09,26,01,02,9.20
2012,09,26,01,03,9.20
2012,09,26,01,04,9.10
2012,09,26,01,05,9.10
2012,09,26,01,06,9.10
2012,09,26,01,07,9.00
2012,09,26,01,08,9.00
2012,09,26,01,09,8.90
2012,09,26,01,10,8.90
2012,09,26,01,11,8.80
2012,09,26,01,12,8.80
2012,09,26,01,13,8.80
2012,09,26,01,14,8.90
2012,09,26,01,15,9.00
2012,09,26,01,16,9.00
2012,09,26,01,17,9.10
2012,09,26,01,18,9.10
2012,09,26,01,19,9.10
2012,09,26,01,20,9.10
2012,09,26,01,21,9.10
2012,09,26,01,22,9.10
2012,09,26,01,23,9.10
2012,09,26,01,24,9.10
2012,09,26,01,25,9.10
2012,09,26,01,26,9.10
2012,09,26,01,27,9.00
2012,09,26,01,28,9.00
2012,09,26,01,29,9.00
2012,09,26,01,30,8.90
2012,09,26,01,31,8.90
2012,09,26,01,32,8.90
2012,09,26,01,33,8.90
2012,09,26,01,34,8.90
2012,09,26,01,35,8.90
2012,09,26,01,36,9.00
2012,09,26,01,37,9.00
2012,09,26,01,38,9.10
2012,09,26,01,39,9.10
2012,09,26,01,40,9.20
2012,09,26,01,41,9.20
2012,09,26,01,42,9.10
2012,09,26,01,43,9.10
2012,09,26,01,44,9.20
2012,09,26,01,45,9.20
2012,09,26,01,46,9.10
2012,09,26,01,47,9.10
2012,09,26,01,48,9.00
2012,09,26,01,49,9.00
2012,09,26,01,50,8.90
2012,09,26,01,51,8.90
2012,09,26,01,52,8.80
2012,09,26,01,53,8.90
2012,09,26,01,54,8.90
2012,09,26,01,55,8.90
2012,09,26,01,56,8.90
2012,09,26,01,57,8.90
2012,09,26,01,58,8.90
2012,09,26,01,59,8.80
2012,09,26,02,00,8.80
2012,09,26,02,01,8.90
2012,09,26,02,02,8.90
2012,09,26,02,03,8.90
2012,09,26,02,04,8.90
2012,09,26,02,05,9.00
2012,09,26,02,06,9.00
2012,09,26,02,07,9.00
2012,09,26,02,08,9.00
2012,09,26,02,09,9.00
2012,09,26,02,10,9.00
2012,09,26,02,11,9.00
2012,09,26,02,12,9.00
2012,09,26,02,13,9.10
2012,09,26,02,14,9.10
2012,09,26,02,15,9.20
2012,09,26,02,16,9.20
2012,09,26,02,17,9.20
2012,09,26,02,18,9.20
2012,09,26,02,19,9.20
2012,09,26,02,20,9.20
2012,09,26,02,21,9.20
2012,09,26,02,22,9.20
2012,09,26,02,23,9.20
2012,09,26,02,24,9.20
2012,09,26,02,25,9.20
2012,09,26,02,26,9.20
2012,09,26,02,27,9.20
2012,09,26,02,28,9.20
2012,09,26,02,29,9.10
2012,09,26,02,30,9.10
2012,09,26,02,31,9.00
2012,09,26,02,32,9.00
2012,09,26,02,33,8.90
2012,09,26,02,34,8.90
2012,09,26,02,35,8.90
2012,09,26,02,36,8.90
2012,09,26,02,37,8.90
2012,09,26,02,38,8.90
2012,09,26,02,39,9.00
2012,09,26,02,40,9.00
2012,09,26,02,41,9.00
2012,09,26,02,42,8.90
2012,09,26,02,43,8.90
2012,09,26,02,44,8.90
2012,09,26,02,45,8.80
2012,09,26,02,46,8.80
2012,09,26,02,47,8.80
2012,09,26,02,48,8.70
2012,09,26,02,49,8.70
2012,09,26,02,50,8.70
2012,09,26,02,51,8.70
2012,09,26,02,52,8.70
2012,09,26,02,53,8.70
2012,09,26,02,54,8.70
2012,09,26,02,55,8.70
2012,09,26,02,56,8.70
2012,09,26,02,57,8.70
2012,09,26,02,58,8.70
2012,09,26,02,59,8.70
2012,09,26,03,00,8.70
2012,09,26,03,01,8.70
2012,09,26,03,02,8.70
2012,09,26,03,03,8.60
2012,09,26,03,04,8.60
2012,09,26,03,05,8.60
2012,09,26,03,06,8.60
2012,09,26,03,07,8.60
2012,09,26,03,08,8.70
2012,09,26,03,09,8.80
2012,09,26,03,10,8.80
2012,09,26,03,11,8.80
2012,09,26,03,12,8.80
2012,09,26,03,13,8.80
2012,09,26,03,14,8.90
2012,09,26,03,15,8.90
2012,09,26,03,16,8.90
2012,09,26,03,17,8.90
2012,09,26,03,18,8.90
2012,09,26,03,19,8.90
2012,09,26,03,20,8.90
2012,09,26,03,21,8.90
2012,09,26,03,22,8.90
2012,09,26,03,23,8.90
2012,09,26,03,24,8.90
2012,09,26,03,25,9.00
2012,09,26,03,26,9.10
2012,09,26,03,27,9.10
2012,09,26,03,28,9.20
2012,09,26,03,29,9.20
2012,09,26,03,30,9.20
2012,09,26,03,31,9.10
2012,09,26,03,32,9.10
2012,09,26,03,33,9.10
2012,09,26,03,34,9.10
2012,09,26,03,35,9.20
2012,09,26,03,36,9.20
2012,09,26,03,37,9.20
2012,09,26,03,38,9.10
2012,09,26,03,39,9.10
2012,09,26,03,40,9.10
2012,09,26,03,41,9.10
2012,09,26,03,42,9.00
2012,09,26,03,43,9.00
2012,09,26,03,44,9.00
2012,09,26,03,45,9.00
2012,09,26,03,46,8.90
2012,09,26,03,47,8.90
2012,09,26,03,48,8.90
2012,09,26,03,49,8.90
2012,09,26,03,50,8.90
2012,09,26,03,51,8.90
2012,09,26,03,52,9.00
2012,09,26,03,53,9.00
2012,09,26,03,54,9.00
2012,09,26,03,55,9.00
2012,09,26,03,56,9.00
2012,09,26,03,57,9.00
2012,09,26,03,58,9.00
2012,09,26,03,59,8.90
2012,09,26,04,00,8.90
2012,09,26,04,01,8.90
2012,09,26,04,02,8.90
2012,09,26,04,03,8.90
2012,09,26,04,04,8.80
2012,09,26,04,05,8.80
2012,09,26,04,06,8.80
2012,09,26,04,07,8.80
2012,09,26,04,08,8.80
2012,09,26,04,09,8.80
2012,09,26,04,10,8.80
2012,09,26,04,11,8.80
2012,09,26,04,12,8.70
2012,09,26,04,13,8.70
2012,09,26,04,14,8.70
2012,09,26,04,15,8.70
2012,09,26,04,16,8.70
2012,09,26,04,17,8.60
2012,09,26,04,18,8.50
2012,09,26,04,19,8.50
2012,09,26,04,20,8.40
2012,09,26,04,21,8.40
2012,09,26,04,22,8.40
2012,09,26,04,23,8.50
2012,09,26,04,24,8.50
2012,09,26,04,25,8.60
2012,09,26,04,26,8.60
2012,09,26,04,27,8.70
2012,09,26,04,28,8.70
2012,09,26,04,29,8.70
2012,09,26,04,30,8.80
2012,09,26,04,31,8.80
2012,09,26,04,32,8.80
2012,09,26,04,33,8.80
2012,09,26,04,34,8.80
2012,09,26,04,35,8.80
2012,09,26,04,36,8.70
2012,09,26,04,37,8.70
2012,09,26,04,38,8.60
2012,09,26,04,39,8.60
2012,09,26,04,40,8.50
2012,09,26,04,41,8.40
2012,09,26,04,42,8.40
2012,09,26,04,43,8.40
2012,09,26,04,44,8.40
2012,09,26,04,45,8.40
2012,09,26,04,46,8.40
2012,09,26,04,47,8.40
2012,09,26,04,48,8.40
2012,09,26,04,49,8.40
2012,09,26,04,50,8.40
2012,09,26,04,51,8.50
2012,09,26,04,52,8.50
2012,09,26,04,53,8.60
2012,09,26,04,54,8.60
2012,09,26,04,55,8.80
2012,09,26,04,56,8.80
2012,09,26,04,57,8.80
2012,09,26,04,58,8.90
2012,09,26,04,59,8.90
2012,09,26,05,00,8.90
2012,09,26,05,01,8.80
2012,09,26,05,02,8.80
2012,09,26,05,03,8.80
2012,09,26,05,04,8.80
2012,09,26,05,05,8.80
2012,09,26,05,06,8.70
2012,09,26,05,07,8.70
2012,09,26,05,08,8.70
2012,09,26,05,09,8.80
2012,09,26,05,10,8.80
2012,09,26,05,11,8.80
2012,09,26,05,12,8.80
2012,09,26,05,13,8.80
2012,09,26,05,14,8.80
2012,09,26,05,15,8.80
2012,09,26,05,16,8.80
2012,09,26,05,17,8.80
2012,09,26,05,18,8.90
2012,09,26,05,19,8.90
2012,09,26,05,20,8.90
2012,09,26,05,21,9.00
2012,09,26,05,22,9.00
2012,09,26,05,23,9.00
2012,09,26,05,24,9.10
2012,09,26,05,25,9.00
2012,09,26,05,26,9.00
2012,09,26,05,27,9.00
2012,09,26,05,28,9.00
2012,09,26,05,29,9.00
2012,09,26,05,30,9.10
2012,09,26,05,31,9.10
2012,09,26,05,32,9.10
2012,09,26,05,33,9.10
2012,09,26,05,34,9.00
2012,09,26,05,35,9.00
2012,09,26,05,36,8.90
2012,09,26,05,37,8.90
2012,09,26,05,38,8.90
2012,09,26,05,39,8.90
2012,09,26,05,40,8.90
2012,09,26,05,41,8.90
2012,09,26,05,42,8.90
2012,09,26,05,43,8.90
2012,09,26,05,44,8.90
2012,09,26,05,45,8.90
2012,09,26,05,46,9.00
2012,09,26,05,47,9.00
2012,09,26,05,48,9.00
2012,09,26,05,49,9.00
2012,09,26,05,50,9.00
2012,09,26,05,51,9.00
2012,09,26,05,52,9.00
2012,09,26,05,53,8.90
2012,09,26,05,54,8.90
2012,09,26,05,55,9.00
2012,09,26,05,56,9.00
2012,09,26,05,57,9.00
2012,09,26,05,58,9.00
2012,09,26,05,59,9.00
2012,09,26,06,00,9.00
2012,09,26,06,01,9.00
2012,09,26,06,02,9.10
2012,09,26,06,03,9.10
2012,09,26,06,04,9.20
2012,09,26,06,05,9.30
2012,09,26,06,06,9.40
2012,09,26,06,07,9.40
2012,09,26,06,08,9.40
2012,09,26,06,09,9.50
2012,09,26,06,10,9.40
2012,09,26,06,11,9.50
2012,09,26,06,12,9.40
2012,09,26,06,13,9.50
2012,09,26,06,14,9.50
2012,09,26,06,15,9.50
2012,09,26,06,16,9.40
2012,09,26,06,17,9.40
2012,09,26,06,18,9.40
2012,09,26,06,19,9.40
2012,09,26,06,20,9.30
2012,09,26,06,21,9.30
2012,09,26,06,22,9.20
2012,09,26,06,23,9.20
2012,09,26,06,24,9.20
2012,09,26,06,25,9.20
2012,09,26,06,26,9.20
2012,09,26,06,27,9.20
2012,09,26,06,28,9.20
2012,09,26,06,29,9.20
2012,09,26,06,30,9.10
2012,09,26,06,31,9.10
2012,09,26,06,32,9.10
2012,09,26,06,33,9.10
2012,09,26,06,34,9.10
2012,09,26,06,35,9.10
2012,09,26,06,36,9.10
2012,09,26,06,37,9.10
2012,09,26,06,38,9.10
2012,09,26,06,39,9.10
2012,09,26,06,40,9.10
2012,09,26,06,41,9.00
2012,09,26,06,42,9.00
2012,09,26,06,43,9.00
2012,09,26,06,44,9.00
2012,09,26,06,45,9.00
2012,09,26,06,46,9.00
2012,09,26,06,47,9.00
2012,09,26,06,48,8.90
2012,09,26,06,49,8.90
2012,09,26,06,50,8.90
2012,09,26,06,51,8.90
2012,09,26,06,52,8.90
2012,09,26,06,53,8.90
2012,09,26,06,54,9.00
2012,09,26,06,55,8.90
2012,09,26,06,56,8.90
2012,09,26,06,57,8.90
2012,09,26,06,58,8.90
2012,09,26,06,59,8.90
2012,09,26,07,00,8.80
2012,09,26,07,01,8.80
2012,09,26,07,02,8.80
2012,09,26,07,03,8.90
2012,09,26,07,04,8.90
2012,09,26,07,05,8.90
2012,09,26,07,06,8.90
2012,09,26,07,07,8.90
2012,09,26,07,08,8.90
2012,09,26,07,09,8.90
2012,09,26,07,10,8.90
2012,09,26,07,11,8.90
2012,09,26,07,12,8.90
2012,09,26,07,13,8.90
2012,09,26,07,14,8.90
2012,09,26,07,15,8.90
2012,09,26,07,16,8.90
2012,09,26,07,17,8.90
2012,09,26,07,18,8.90
2012,09,26,07,19,8.90
2012,09,26,07,20,8.90
2012,09,26,07,21,8.90
2012,09,26,07,22,8.90
2012,09,26,07,23,8.90
2012,09,26,07,24,8.90
2012,09,26,07,25,8.90
2012,09,26,07,26,8.90
2012,09,26,07,27,8.90
2012,09,26,07,28,9.00
2012,09,26,07,29,9.00
2012,09,26,07,30,9.10
2012,09,26,07,31,9.10
2012,09,26,07,32,9.20
2012,09,26,07,33,9.20
2012,09,26,07,34,9.20
2012,09,26,07,35,9.20
2012,09,26,07,36,9.20
2012,09,26,07,37,9.20
2012,09,26,07,38,9.20
2012,09,26,07,39,9.20
2012,09,26,07,40,9.20
2012,09,26,07,41,9.20
2012,09,26,07,42,9.20
2012,09,26,07,43,9.20
2012,09,26,07,44,9.20
2012,09,26,07,45,9.20
2012,09,26,07,46,9.20
2012,09,26,07,47,9.10
2012,09,26,07,48,9.10
2012,09,26,07,49,9.10
2012,09,26,07,50,9.20
2012,09,26,07,51,9.20
2012,09,26,07,52,9.30
2012,09,26,07,53,9.30
2012,09,26,07,54,9.40
2012,09,26,07,55,9.40
2012,09,26,07,56,9.50
2012,09,26,07,57,9.60
2012,09,26,07,58,9.60
2012,09,26,07,59,9.60
2012,09,26,08,00,9.60
2012,09,26,08,01,9.60
2012,09,26,08,02,9.60
2012,09,26,08,03,9.60
2012,09,26,08,04,9.60
2012,09,26,08,05,9.60
2012,09,26,08,06,9.60
2012,09,26,08,07,9.70
2012,09,26,08,08,9.70
2012,09,26,08,09,9.70
2012,09,26,08,10,9.70
2012,09,26,08,11,9.80
2012,09,26,08,12,9.80
2012,09,26,08,13,9.80
2012,09,26,08,14,9.80
2012,09,26,08,15,9.80
2012,09,26,08,16,9.80
2012,09,26,08,17,9.90
2012,09,26,08,18,9.90
2012,09,26,08,19,9.90
2012,09,26,08,20,9.90
2012,09,26,08,21,9.90
2012,09,26,08,22,9.90
2012,09,26,08,23,10.00
2012,09,26,08,24,10.00
2012,09,26,08,25,10.10
2012,09,26,08,26,10.10
2012,09,26,08,27,10.10
2012,09,26,08,28,10.20
2012,09,26,08,29,10.20
2012,09,26,08,30,10.20
2012,09,26,08,31,10.20
2012,09,26,08,32,10.20
2012,09,26,08,33,10.20
2012,09,26,08,34,10.20
2012,09,26,08,35,10.20
2012,09,26,08,36,10.20
2012,09,26,08,37,10.20
2012,09,26,08,38,10.20
2012,09,26,08,39,10.20
2012,09,26,08,40,10.30
2012,09,26,08,41,10.30
2012,09,26,08,42,10.30
2012,09,26,08,43,10.30
2012,09,26,08,44,10.30
2012,09,26,08,45,10.30
2012,09,26,08,46,10.40
2012,09,26,08,47,10.40
2012,09,26,08,48,10.40
2012,09,26,08,49,10.50
2012,09,26,08,50,10.50
2012,09,26,08,51,10.50
2012,09,26,08,52,10.60
2012,09,26,08,53,10.60
2012,09,26,08,54,10.70
2012,09,26,08,55,10.70
2012,09,26,08,56,10.70
2012,09,26,08,57,10.80
2012,09,26,08,58,10.80
2012,09,26,08,59,10.90
2012,09,26,09,00,10.90
2012,09,26,09,01,11.00
2012,09,26,09,02,11.00
2012,09,26,09,03,11.10
2012,09,26,09,04,11.10
2012,09,26,09,05,11.10
2012,09,26,09,06,11.20
2012,09,26,09,07,11.20
2012,09,26,09,08,11.20
2012,09,26,09,09,11.30
2012,09,26,09,10,11.40
2012,09,26,09,11,11.40
2012,09,26,09,12,11.50
2012,09,26,09,13,11.50
2012,09,26,09,14,11.60
2012,09,26,09,15,11.60
2012,09,26,09,16,11.60
2012,09,26,09,17,11.70
2012,09,26,09,18,11.70
2012,09,26,09,19,11.70
2012,09,26,09,20,11.80
2012,09,26,09,21,11.80
2012,09,26,09,22,11.90
2012,09,26,09,23,11.90
2012,09,26,09,24,12.00
2012,09,26,09,25,12.00
2012,09,26,09,26,12.10
2012,09,26,09,27,12.10
2012,09,26,09,28,12.10
2012,09,26,09,29,12.20
2012,09,26,09,30,12.30
2012,09,26,09,31,12.30
2012,09,26,09,32,12.40
2012,09,26,09,33,12.50
2012,09,26,09,34,12.50
2012,09,26,09,35,12.60
2012,09,26,09,36,12.60
2012,09,26,09,37,12.60
2012,09,26,09,38,12.70
2012,09,26,09,39,12.70
2012,09,26,09,40,12.70
2012,09,26,09,41,12.80
2012,09,26,09,42,12.80
2012,09,26,09,43,12.80
2012,09,26,09,44,12.80
2012,09,26,09,45,12.90
2012,09,26,09,46,13.00
2012,09,26,09,47,13.10
2012,09,26,09,48,13.10
2012,09,26,09,49,13.20
2012,09,26,09,50,13.20
2012,09,26,09,51,13.20
2012,09,26,09,52,13.20
2012,09,26,09,53,13.20
2012,09,26,09,54,13.20
2012,09,26,09,55,13.20
2012,09,26,09,56,13.20
2012,09,26,09,57,13.20
2012,09,26,09,58,13.30
2012,09,26,09,59,13.30
2012,09,26,10,00,13.30
2012,09,26,10,01,13.30
2012,09,26,10,02,13.30
2012,09,26,10,03,13.30
2012,09,26,10,04,13.30
2012,09,26,10,05,13.30
2012,09,26,10,06,13.30
2012,09,26,10,07,13.40
2012,09,26,10,08,13.40
2012,09,26,10,09,13.40
2012,09,26,10,10,13.50
2012,09,26,10,11,13.50
2012,09,26,10,12,13.60
2012,09,26,10,13,13.60
2012,09,26,10,14,13.60
2012,09,26,10,15,13.60
2012,09,26,10,16,13.60
2012,09,26,10,17,13.60
2012,09,26,10,18,13.60
2012,09,26,10,19,13.60
2012,09,26,10,20,13.60
2012,09,26,10,21,13.60
2012,09,26,10,22,13.60
2012,09,26,10,23,13.60
2012,09,26,10,24,13.60
2012,09,26,10,25,13.60
2012,09,26,10,26,13.60
2012,09,26,10,27,13.70
2012,09,26,10,28,13.70
2012,09,26,10,29,13.70
2012,09,26,10,30,13.70
2012,09,26,10,31,13.80
2012,09,26,10,32,13.80
2012,09,26,10,33,13.80
2012,09,26,10,34,13.90
2012,09,26,10,35,13.90
2012,09,26,10,36,13.90
2012,09,26,10,37,14.00
2012,09,26,10,38,14.10
2012,09,26,10,39,14.10
2012,09,26,10,40,14.20
2012,09,26,10,41,14.30
2012,09,26,10,42,14.30
2012,09,26,10,43,14.30
2012,09,26,10,44,14.30
2012,09,26,10,45,14.30
2012,09,26,10,46,14.30
2012,09,26,10,47,14.30
2012,09,26,10,48,14.30
2012,09,26,10,49,14.30
2012,09,26,10,50,14.30
2012,09,26,10,51,14.30
2012,09,26,10,52,14.30
2012,09,26,10,53,14.30
2012,09,26,10,54,14.40
2012,09,26,10,55,14.40
2012,09,26,10,56,14.40
2012,09,26,10,57,14.40
2012,09,26,10,58,14.30
2012,09,26,10,59,14.30
2012,09,26,11,00,14.30
2012,09,26,11,01,14.30
2012,09,26,11,02,14.30
2012,09,26,11,03,14.40
2012,09,26,11,04,14.40
2012,09,26,11,05,14.40
2012,09,26,11,06,14.50
2012,09,26,11,07,14.50
2012,09,26,11,08,14.50
2012,09,26,11,09,14.60
2012,09,26,11,10,14.60
2012,09,26,11,11,14.70
2012,09,26,11,12,14.80
2012,09,26,11,13,14.90
2012,09,26,11,14,14.90
2012,09,26,11,15,15.00
2012,09,26,11,16,15.00
2012,09,26,11,17,15.00
2012,09,26,11,18,15.00
2012,09,26,11,19,15.00
2012,09,26,11,20,15.00
2012,09,26,11,21,15.00
2012,09,26,11,22,15.00
2012,09,26,11,23,15.10
2012,09,26,11,24,15.10
2012,09,26,11,25,15.10
2012,09,26,11,26,15.10
2012,09,26,11,27,15.10
2012,09,26,11,28,15.10
2012,09,26,11,29,15.10
2012,09,26,11,30,15.10
2012,09,26,11,31,15.00
2012,09,26,11,32,15.00
2012,09,26,11,33,15.00
2012,09,26,11,34,15.10
2012,09,26,11,35,15.10
2012,09,26,11,36,15.10
2012,09,26,11,37,15.10
2012,09,26,11,38,15.10
2012,09,26,11,39,15.10
2012,09,26,11,40,15.20
2012,09,26,11,41,15.20
2012,09,26,11,42,15.30
2012,09,26,11,43,15.30
2012,09,26,11,44,15.30
2012,09,26,11,45,15.30
2012,09,26,11,46,15.30
2012,09,26,11,47,15.30
2012,09,26,11,48,15.40
2012,09,26,11,49,15.40
2012,09,26,11,50,15.50
2012,09,26,11,51,15.60
2012,09,26,11,52,15.70
2012,09,26,11,53,15.70
2012,09,26,11,54,15.70
2012,09,26,11,55,15.70
2012,09,26,11,56,15.70
2012,09,26,11,57,15.80
2012,09,26,11,58,15.80
2012,09,26,11,59,15.80
2012,09,26,12,00,15.80
2012,09,26,12,01,15.90
2012,09,26,12,02,15.90
2012,09,26,12,03,15.90
2012,09,26,12,04,16.00
2012,09,26,12,05,16.00
2012,09,26,12,06,16.00
2012,09,26,12,07,15.90
2012,09,26,12,08,15.80
2012,09,26,12,09,15.80
2012,09,26,12,10,15.70
2012,09,26,12,11,15.60
2012,09,26,12,12,15.60
2012,09,26,12,13,15.60
2012,09,26,12,14,15.60
2012,09,26,12,15,15.60
2012,09,26,12,16,15.60
2012,09,26,12,17,15.70
2012,09,26,12,18,15.70
2012,09,26,12,19,15.70
2012,09,26,12,20,15.70
2012,09,26,12,21,15.80
2012,09,26,12,22,15.80
2012,09,26,12,23,15.70
2012,09,26,12,24,15.70
2012,09,26,12,25,15.70
2012,09,26,12,26,15.80
2012,09,26,12,27,15.80
2012,09,26,12,28,15.90
2012,09,26,12,29,15.90
2012,09,26,12,30,16.00
2012,09,26,12,31,16.10
2012,09,26,12,32,16.20
2012,09,26,12,33,16.20
2012,09,26,12,34,16.30
2012,09,26,12,35,16.30
2012,09,26,12,36,16.40
2012,09,26,12,37,16.50
2012,09,26,12,38,16.50
2012,09,26,12,39,16.50
2012,09,26,12,40,16.40
2012,09,26,12,41,16.40
2012,09,26,12,42,16.30
2012,09,26,12,43,16.30
2012,09,26,12,44,16.20
2012,09,26,12,45,16.20
2012,09,26,12,46,16.20
2012,09,26,12,47,16.10
2012,09,26,12,48,16.10
2012,09,26,12,49,16.10
2012,09,26,12,50,16.00
2012,09,26,12,51,15.90
2012,09,26,12,52,15.90
2012,09,26,12,53,15.80
2012,09,26,12,54,15.80
2012,09,26,12,55,15.80
2012,09,26,12,56,15.80
2012,09,26,12,57,15.80
2012,09,26,12,58,15.90
2012,09,26,12,59,15.90
2012,09,26,13,00,15.90
2012,09,26,13,01,16.00
2012,09,26,13,02,16.00
2012,09,26,13,03,16.00
2012,09,26,13,04,16.00
2012,09,26,13,05,16.10
2012,09,26,13,06,16.10
2012,09,26,13,07,16.20
2012,09,26,13,08,16.30
2012,09,26,13,09,16.30
2012,09,26,13,10,16.40
2012,09,26,13,11,16.40
2012,09,26,13,12,16.40
2012,09,26,13,13,16.40
2012,09,26,13,14,16.40
2012,09,26,13,15,16.40
2012,09,26,13,16,16.40
2012,09,26,13,17,16.40
2012,09,26,13,18,16.40
2012,09,26,13,19,16.40
2012,09,26,13,20,16.30
2012,09,26,13,21,16.30
2012,09,26,13,22,16.30
2012,09,26,13,23,16.30
2012,09,26,13,24,16.30
2012,09,26,13,25,16.30
2012,09,26,13,26,16.40
2012,09,26,13,27,16.40
2012,09,26,13,28,16.40
2012,09,26,13,29,16.40
2012,09,26,13,30,16.50
2012,09,26,13,31,16.60
2012,09,26,13,32,16.60
2012,09,26,13,33,16.60
2012,09,26,13,34,16.60
2012,09,26,13,35,16.70
2012,09,26,13,36,16.70
2012,09,26,13,37,16.70
2012,09,26,13,38,16.60
2012,09,26,13,39,16.60
2012,09,26,13,40,16.70
2012,09,26,13,41,16.60
2012,09,26,13,42,16.60
2012,09,26,13,43,16.60
2012,09,26,13,44,16.70
2012,09,26,13,45,16.70
2012,09,26,13,46,16.80
2012,09,26,13,47,16.80
2012,09,26,13,48,16.80
2012,09,26,13,49,16.80
2012,09,26,13,50,16.80
2012,09,26,13,51,16.70
2012,09,26,13,52,16.70
2012,09,26,13,53,16.70
2012,09,26,13,54,16.70
2012,09,26,13,55,16.70
2012,09,26,13,56,16.70
2012,09,26,13,57,16.70
2012,09,26,13,58,16.70
2012,09,26,13,59,16.70
2012,09,26,14,00,16.70
2012,09,26,14,01,16.70
2012,09,26,14,02,16.80
2012,09,26,14,03,16.80
2012,09,26,14,04,16.80
2012,09,26,14,05,16.80
2012,09,26,14,06,16.80
2012,09,26,14,07,16.80
2012,09,26,14,08,16.80
2012,09,26,14,09,16.70
2012,09,26,14,10,16.70
2012,09,26,14,11,16.80
2012,09,26,14,12,16.80
2012,09,26,14,13,16.80
2012,09,26,14,14,16.80
2012,09,26,14,15,16.80
2012,09,26,14,16,16.80
2012,09,26,14,17,16.80
2012,09,26,14,18,16.80
2012,09,26,14,19,16.90
2012,09,26,14,20,16.90
2012,09,26,14,21,17.00
2012,09,26,14,22,17.00
2012,09,26,14,23,17.10
2012,09,26,14,24,17.10
2012,09,26,14,25,17.20
2012,09,26,14,26,17.20
2012,09,26,14,27,17.20
2012,09,26,14,28,17.10
2012,09,26,14,29,17.10
2012,09,26,14,30,17.10
2012,09,26,14,31,17.20
2012,09,26,14,32,17.30
2012,09,26,14,33,17.30
2012,09,26,14,34,17.30
2012,09,26,14,35,17.30
2012,09,26,14,36,17.30
2012,09,26,14,37,17.40
2012,09,26,14,38,17.40
2012,09,26,14,39,17.50
2012,09,26,14,40,17.60
2012,09,26,14,41,17.60
2012,09,26,14,42,17.70
2012,09,26,14,43,17.70
2012,09,26,14,44,17.70
2012,09,26,14,45,17.70
2012,09,26,14,46,17.80
2012,09,26,14,47,17.80
2012,09,26,14,48,17.80
2012,09,26,14,49,17.70
2012,09,26,14,50,17.60
2012,09,26,14,51,17.50
2012,09,26,14,52,17.50
2012,09,26,14,53,17.40
2012,09,26,14,54,17.40
2012,09,26,14,55,17.40
2012,09,26,14,56,17.50
2012,09,26,14,57,17.50
2012,09,26,14,58,17.60
2012,09,26,14,59,17.70
2012,09,26,15,00,17.70
2012,09,26,15,01,17.80
2012,09,26,15,02,17.90
2012,09,26,15,03,18.10
2012,09,26,15,04,18.10
2012,09,26,15,05,18.10
2012,09,26,15,06,18.10
2012,09,26,15,07,18.10
2012,09,26,15,08,18.10
2012,09,26,15,09,18.20
2012,09,26,15,10,18.10
2012,09,26,15,11,18.10
2012,09,26,15,12,18.10
2012,09,26,15,13,18.10
2012,09,26,15,14,18.10
2012,09,26,15,15,18.10
2012,09,26,15,16,18.10
2012,09,26,15,17,18.10
2012,09,26,15,18,18.00
2012,09,26,15,19,17.90
2012,09,26,15,20,17.90
2012,09,26,15,21,17.90
2012,09,26,15,22,17.90
2012,09,26,15,23,17.80
2012,09,26,15,24,17.80
2012,09,26,15,25,17.80
2012,09,26,15,26,17.70
2012,09,26,15,27,17.70
2012,09,26,15,28,17.70
2012,09,26,15,29,17.70
2012,09,26,15,30,17.70
2012,09,26,15,31,17.60
2012,09,26,15,32,17.60
2012,09,26,15,33,17.60
2012,09,26,15,34,17.70
2012,09,26,15,35,17.60
2012,09,26,15,36,17.60
2012,09,26,15,37,17.60
2012,09,26,15,38,17.60
2012,09,26,15,39,17.60
2012,09,26,15,40,17.60
2012,09,26,15,41,17.60
2012,09,26,15,42,17.50
2012,09,26,15,43,17.50
2012,09,26,15,44,17.50
2012,09,26,15,45,17.50
2012,09,26,15,46,17.60
2012,09,26,15,47,17.60
2012,09,26,15,48,17.60
2012,09,26,15,49,17.60
2012,09,26,15,50,17.70
2012,09,26,15,51,17.70
2012,09,26,15,52,17.80
2012,09,26,15,53,17.80
2012,09,26,15,54,17.80
2012,09,26,15,55,17.80
2012,09,26,15,56,17.80
2012,09,26,15,57,17.80
2012,09,26,15,58,17.80
2012,09,26,15,59,17.80
2012,09,26,16,00,17.80
2012,09,26,16,01,17.80
2012,09,26,16,02,17.80
2012,09,26,16,03,17.90
2012,09,26,16,04,17.90
2012,09,26,16,05,17.90
2012,09,26,16,06,17.80
2012,09,26,16,07,17.80
2012,09,26,16,08,17.70
2012,09,26,16,09,17.70
2012,09,26,16,10,17.70
2012,09,26,16,11,17.80
2012,09,26,16,12,17.80
2012,09,26,16,13,17.80
2012,09,26,16,14,17.80
2012,09,26,16,15,17.90
2012,09,26,16,16,17.90
2012,09,26,16,17,17.90
2012,09,26,16,18,18.00
2012,09,26,16,19,18.10
2012,09,26,16,20,18.10
2012,09,26,16,21,18.20
2012,09,26,16,22,18.20
2012,09,26,16,23,18.20
2012,09,26,16,24,18.10
2012,09,26,16,25,18.10
2012,09,26,16,26,18.10
2012,09,26,16,27,18.10
2012,09,26,16,28,18.20
2012,09,26,16,29,18.20
2012,09,26,16,30,18.20
2012,09,26,16,31,18.20
2012,09,26,16,32,18.20
2012,09,26,16,33,18.20
2012,09,26,16,34,18.20
2012,09,26,16,35,18.20
2012,09,26,16,36,18.10
2012,09,26,16,37,18.10
2012,09,26,16,38,18.00
2012,09,26,16,39,18.00
2012,09,26,16,40,17.90
2012,09,26,16,41,17.80
2012,09,26,16,42,17.70
2012,09,26,16,43,17.70
2012,09,26,16,44,17.60
2012,09,26,16,45,17.50
2012,09,26,16,46,17.50
2012,09,26,16,47,17.50
2012,09,26,16,48,17.50
2012,09,26,16,49,17.50
2012,09,26,16,50,17.60
2012,09,26,16,51,17.60
2012,09,26,16,52,17.50
2012,09,26,16,53,17.50
2012,09,26,16,54,17.50
2012,09,26,16,55,17.60
2012,09,26,16,56,17.60
2012,09,26,16,57,17.70
2012,09,26,16,58,17.80
2012,09,26,16,59,17.80
2012,09,26,17,00,17.90
2012,09,26,17,01,17.90
2012,09,26,17,02,17.90
2012,09,26,17,03,18.00
2012,09,26,17,04,18.00
2012,09,26,17,05,18.00
2012,09,26,17,06,18.00
2012,09,26,17,07,18.00
2012,09,26,17,08,18.00
2012,09,26,17,09,18.00
2012,09,26,17,10,18.00
2012,09,26,17,11,18.00
2012,09,26,17,12,18.00
2012,09,26,17,13,18.00
2012,09,26,17,14,18.00
2012,09,26,17,15,17.90
2012,09,26,17,16,17.90
2012,09,26,17,17,17.90
2012,09,26,17,18,17.90
2012,09,26,17,19,17.90
2012,09,26,17,20,17.80
2012,09,26,17,21,17.80
2012,09,26,17,22,17.80
2012,09,26,17,23,17.70
2012,09,26,17,24,17.70
2012,09,26,17,25,17.70
2012,09,26,17,26,17.60
2012,09,26,17,27,17.60
2012,09,26,17,28,17.60
2012,09,26,17,29,17.60
2012,09,26,17,30,17.60
2012,09,26,17,31,17.60
2012,09,26,17,32,17.60
2012,09,26,17,33,17.60
2012,09,26,17,34,17.70
2012,09,26,17,35,17.70
2012,09,26,17,36,17.70
2012,09,26,17,37,17.60
2012,09,26,17,38,17.60
2012,09,26,17,39,17.60
2012,09,26,17,40,17.60
2012,09,26,17,41,17.60